ATLAS 5 CENTAUR DEB, 44655

Orbit data source: Space-Track

ATLAS 5 CENTAUR DEB, 44655 is space debris in HEO originally from a launch on Wed, 17 Oct 2018 UTC launched from the Air Force Eastern Test Range (AFETR). Debris objects in space refer to the collection of defunct objects orbiting the Earth. Examples of debris include non-operational satellites, rocket bodies, and fragments generated from explosions, collisions, or faulty payload assembly.

Loading next visibility...
Identifier
44655, 2018-079R
Orbit
HEO
Country
Flag of USUS
Related business
Flag of USUnited Launch Alliance/Lockheed Martin (US)
Manufacturer
ULA Decatur
Mission
Spacecraft
Bus & Motor
Unknown
Mass
Unknown
Launch date (UTC)
2018-10-17 (8 years ago)
Launch vehicle
Unknown
Launch site
Air Force Eastern Test Range (AFETR)
Object type
Payload
Rocket body
Debris
Shape & HBR
Unknown shape, 1.1 m
Radar Cross Section
RCS unknown

Expand to show TLE details & history
Last TLE update: 2 days ago

TLE from 2 days ago
0 ATLAS 5 CENTAUR DEB
1 44655U 18079R   26126.52222278 -.00000141  00000-0  00000+0 0  9992
2 44655  13.8254  23.6410 4742358 332.8384   8.8644  1.83841080 50726
Epoch: 2026-05-06T12:32Z
TLE epoch observation values (Epoch: 2026-05-06T12:32:00.048Z)
Latitude
0.00003°
Longitude
-28.77351°
Altitude
8,967.427 km
Speed
6.147 km/s
True Right ascension
01h 34m 25s
True Declination
0° 00' 00"
Sunlit
Object was in daylight at epoch
Visualization orbit readout
Latitude
Unknown
Longitude
Unknown
Altitude
Unknown
Speed
Unknown
Apparent Right ascension
Unknown
Apparent Declination
Unknown
Sunlit
N/A
Visualization observer readout
Local Sidereal Time
15:01:26
Azimuth
Unknown
Elevation
Unknown
Doppler factor
Unknown
Orbital elements
Apogee altitude
35,121.061 km
Perigee altitude
8,421.933 km
Semi-major axis
28,149.634 km
Eccentricity
0.47424
Inclination
13.8254°
RAAN
23.641°
Arg. of periapsis
332.8384°
True anomaly
27.53524°
Mean anomaly
8.8644°
Eccentric anomaly
16.64956°
Mean motion
0.45955 °/min
Orbital period
783.37 mins
BSTAR
0
Loading maneuver chart data...
Computing Atmospheric mass density...

Documentation

Showing up to 5 results
|